Location: Härggis
(46.9540°N, 8.4897°E)
Time: 22:57:40
(UTC+00:00)

Cosmos 1606 Rocket - Pass Details

Date: 27 May 2022
Orbit: 601 x 632 km, 82.5° (Epoch: 26 June)

Event Time Altitude Azimuth Distance (km) Brightness Sun altitude
Rises 02:43:58 0° 344° (NNW) 2,915 7.4 -8.2°
Reaches altitude 10° 02:46:19 10° 337° (NNW) 1,998 6.4 -7.9°
Maximum altitude 02:50:26 40° 268° (W) 920 4.1 -7.4°
Drops below altitude 10° 02:54:30 10° 199° (SSW) 1,964 5.6 -6.8°
Enters shadow 02:56:03 - 194° (SSW) 2,571 6.2 -6.6°
